Regional Weather Roundup
Issued by NWS

Home | Current Version | Previous Version | Text Only | Print | Product List | Glossary Off
Versions: 1 2 3 4 5 6 7 8 9 10 11 12 13 14 15 16 17 18 19 20 21 22 23 24 25 26 27 28 29 30 31 32 33 34 35 36 37 38 39 40 41 42 43 44 45 46 47 48 49 50

000
ASUS45 KABQ 310401
RWRNM
WEATHER ROUNDUP FOR NEW MEXICO
NATIONAL WEATHER SERVICE ALBUQUERQUE NM
1000 PM MDT WED JUL 30 2014

NOTE: "FAIR" MEANS FEW OR NO CLOUDS BELOW 12,000 FEET AGL WITH NO
       SIGNIFICANT WEATHER OR OBSTRUCTIONS TO VISION.

      THIS PRODUCT IS RELEASED AS TWO VERSIONS.  ONE VERSION NEAR
      THE TOP OF THE HOUR CONTAINING PRELIMINARY DATA FROM ALBUQUERQUE
      AND OTHER STATIONS.  A FINAL VERSION WITH ADDITIONAL DATA IS
      ISSUED ABOUT 10 MINUTES AFTER THE HOUR.

NMZ501-503-504-510>518-310500-
NORTHWEST PLATEAU/NORTHCENTRAL MOUNTAINS

CITY           SKY/WX    TMP DP  RH WIND       PRES   REMARKS
FARMINGTON     CLEAR     79  45  29 N8        30.13R
LOS ALAMOS     MOCLDY    64  55  74 SW14G22   30.35R
SANTA FE       MOCLDY    66  56  70 SE20G36   30.28R
TAOS           PTCLDY    63  52  67 E20       30.34R
ANGEL FIRE     CLOUDY    57  52  81 E5        30.47R

$$
NMZ402-403-502-505>509-310500-
WESTCENTRAL MOUNTAINS/SOUTHWEST MOUNTAINS

CITY           SKY/WX    TMP DP  RH WIND       PRES   REMARKS
GALLUP         PTCLDY    72  47  40 S5        30.24R

$$
NMZ407-409-411-412-310500-
SOUTHERN DESERTS

CITY           SKY/WX    TMP DP  RH WIND       PRES   REMARKS
LORDSBURG      FAIR      82  50  32 SW15G21   30.08R
DEMING         MOCLDY    82  52  35 SW9       30.07S
LAS CRUCES     MOCLDY    82  49  31 W9        30.11R
HOLLOMAN AFB   MOCLDY    84  57  39 SW12      30.05R
T OR C         LGT RAIN  75  59  57 S14       30.12R

$$
NMZ519>523-310500-
CENTRAL VALLEYS/CENTRAL HIGHLANDS

CITY           SKY/WX    TMP DP  RH WIND       PRES   REMARKS
ALBUQUERQUE    CLOUDY    72  58  61 E35G46    30.17R
DOUBLE EAGLE   LGT RAIN  70  57  64 SE21      30.23R
CLINES CORNERS CLOUDY    60  57  89 E16       30.38R
BELEN          TSTM      70  64  81 E9        30.19R
SOCORRO        FAIR      80  58  46 E24G32    30.13R

$$
NMZ524>526-539-540-310500-
SOUTHCENTRAL MOUNTAINS

CITY           SKY/WX    TMP DP  RH WIND       PRES   REMARKS
RUIDOSO        NOT AVBL

$$
NMZ527>531-310500-
NORTHEAST HIGHLANDS/NORTHEAST PLAINS

CITY           SKY/WX    TMP DP  RH WIND       PRES   REMARKS
LAS VEGAS      CLOUDY    58  55  90 E15       30.39R
RATON          CLOUDY    60  54  80 NE8       30.36R
CLAYTON        CLOUDY    61  56  83 NE10      30.31R

$$
NMZ532>537-310500-
EASTCENTRAL PLAINS

CITY           SKY/WX    TMP DP  RH WIND       PRES   REMARKS
TUCUMCARI      MOCLDY    68  57  68 NE18      30.25R
CANNON AFB     CLOUDY    65  62  88 NE15      30.26R
CLOVIS AIRPORT CLOUDY    64  57  77 NE15      30.26

$$
NMZ028-029-538-310500-
SOUTHEAST PLAINS

CITY           SKY/WX    TMP DP  RH WIND       PRES   REMARKS
ROSWELL        MOCLDY    76  61  59 NE14G24   30.15R
ARTESIA        MOCLDY    81  61  50 NE21      30.12R
CARLSBAD       NOT AVBL
HOBBS          CLOUDY    75  59  57 NE23      30.13R


$$


USA.gov is the U.S. government's official web portal to all federal, state and local government web resources and services.